{"data":{"norad_id":48232,"intl_designator":"2021-031Y","name":"ONEWEB-0220","alt_names":[],"object_type":"PAYLOAD","status":"ACTIVE","operator":null,"country":"UK","launch_date":"2021-04-25","launch_site_code":"VOSTO","launch_vehicle":null,"mission":null,"orbit_class":"UNKNOWN","rcs_meters":null,"size_class":null,"mass_kg":null,"dimensions":null,"purposes":["comms"],"wikipedia_slug":null,"has_3d_model":false,"image_url":null,"decayed_at":null,"tle_current":{"epoch":"2026-05-25T02:36:53.631648Z","epoch_age_seconds":72389,"freshness":"FRESH","line1":"1 48232U 21031Y   26145.10895407  .00000221  00000+0  56043-3 0  9993","line2":"2 48232  87.8952 294.2989 0001878 105.0194 255.1143 13.14501659245374","mean_motion":13.14501659,"eccentricity":0.0001878,"inclination_deg":87.8952,"raan_deg":294.2989,"arg_perigee_deg":105.0194,"mean_anomaly_deg":255.1143,"bstar":0.00056043,"rev_number":24537,"period_min":109.54721815227,"perigee_km":1204.3704808762,"apogee_km":1207.2190056389,"semimajor_km":7583.9317432576,"source":"CELESTRAK","updated_at":"2026-05-25T13:38:22.437898Z"}}}